Regional Weather Roundup
Issued by NWS

Home | Current Version | Previous Version | Graphics & Text | Print | Product List | Glossary On
Versions: 1 2 3 4 5 6 7 8 9 10 11 12 13 14 15 16 17 18 19 20 21 22 23 24 25 26 27 28 29 30 31 32 33 34 35 36 37 38 39 40 41 42 43 44 45 46 47 48 49 50
619
ASUS43 KDTX 270010
RWRMI
MICHIGAN HOURLY REGIONAL WEATHER ROUNDUP
NATIONAL WEATHER SERVICE DETROIT/PONTIAC MI
ISSUED BY NATIONAL WEATHER SERVICE GRAND RAPIDS MI
800 PM EDT MON JUN 26 2017

NOTE: "FAIR" INDICATES FEW OR NO CLOUDS BELOW 12,000 FEET WITH NO
SIGNIFICANT WEATHER AND/OR OBSTRUCTION TO VISIBILITY.

MIZ047>049-052>055-059>063-066>070-074>076-081>083-270100-
SOUTHEAST LOWER MICHIGAN

CITY           SKY/WX    TMP DP  RH WIND       PRES   REMARKS
ADRIAN         CLOUDY    64  46  52 SW10      29.99S
6HR MIN TEMP:  64; 6HR MAX TEMP:  72; 6HR PCP: TRACE;

ALMA           CLOUDY    58  46  63 SW8       29.97F
ANN ARBOR      MOSUNNY   65  44  46 W8        29.96F
BAD AXE        MOSUNNY   63  46  53 W12G17    29.93S
6HR MIN TEMP:  55; 6HR MAX TEMP:  67;

DETROIT CITY   MOSUNNY   66  44  45 W6        29.96S
6HR MIN TEMP:  64; 6HR MAX TEMP:  72; 6HR PCP: TRACE;

DETROIT        PTSUNNY   68  42  38 NW14      29.96F
6HR MIN TEMP:  67; 6HR MAX TEMP:  73; 6HR PCP: TRACE;

FLINT          MOSUNNY   63  41  44 W15       29.96R
6HR MIN TEMP:  63; 6HR MAX TEMP:  71;

GROSSE ILE     SUNNY     66  43  42 W7        29.96S
HILLSDALE      PTSUNNY   63  39  42 W15G21    29.99R
HOWELL         PTSUNNY   61  40  45 W9G16     29.97S
6HR MIN TEMP:  61; 6HR MAX TEMP:  70;


CITY           SKY/WX    TMP DP  RH WIND       PRES   REMARKS
JACKSON        PTSUNNY   63  44  50 NW10      29.98S
6HR MIN TEMP:  61; 6HR MAX TEMP:  70; 6HR PCP: TRACE;

LANSING        CLOUDY    60  48  64 W10       29.99R
6HR MIN TEMP:  58; 6HR MAX TEMP:  71; 6HR PCP: TRACE;

MASON          CLOUDY    60  47  62 NW18      29.99R
MONROE         CLOUDY    69  43  38 W8G16     29.96S
6HR MIN TEMP:  67; 6HR MAX TEMP:  73;

MT. CLEMENS    MOSUNNY   68  41  37 W10       29.93S
6HR MIN TEMP:  67; 6HR MAX TEMP:  73;

PONTIAC        MOSUNNY   64  41  42 W16       29.95S
6HR MIN TEMP:  64; 6HR MAX TEMP:  71;

PORT HOPE        N/A     64  45  49 W10G22    29.91R
6HR MIN TEMP:  63; 6HR MAX TEMP:  68;

PORT HURON     MOSUNNY   66  37  34 W6        29.94S
TRI CITIES     SUNNY     61  46  57 W15       29.96R
6HR MIN TEMP:  60; 6HR MAX TEMP:  70; 6HR PCP: TRACE;

YPSILANTI      SUNNY     69  42  37 MISG      29.97S
6HR MIN TEMP:  66; 6HR MAX TEMP:  74; 6HR PCP: TRACE;

$$
MIZ043>046-050>051-056>058-064>065-071>073-077>080-270100-
SOUTHWEST LOWER MICHIGAN

CITY           SKY/WX    TMP DP  RH WIND       PRES   REMARKS
BATTLE CREEK   CLOUDY    61  46  57 NW12      30.02R
6HR MIN TEMP:  59; 6HR MAX TEMP:  70; 6HR PCP:  0.02;

BENTON HARBOR  PTSUNNY   61  47  59 VRB7      30.03S
6HR MIN TEMP:  61; 6HR MAX TEMP:  71;

BIG RAPIDS     MOSUNNY   58  42  56 NW10      29.98R
6HR MIN TEMP:  56; 6HR MAX TEMP:  63;

COLDWATER      PTSUNNY   65  40  39 NW9G16    30.00R
6HR MIN TEMP:  65; 6HR MAX TEMP:  72;

HOLLAND        PTSUNNY   60  46  59 NW8       30.03R
6HR MIN TEMP:  57; 6HR MAX TEMP:  68; 6HR PCP: TRACE;

GRAND RAPIDS   PTSUNNY   59  45  59 W14       30.00S
6HR MIN TEMP:  57; 6HR MAX TEMP:  68; 6HR PCP: TRACE;

KALAMAZOO      CLOUDY    61  42  49 NW13G24   30.02R
6HR MIN TEMP:  61; 6HR MAX TEMP:  71;

MARSHALL       CLOUDY    62  46  55 NW10G18   30.00R
6HR MIN TEMP:  57; 6HR MAX TEMP:  70; 6HR PCP:  0.03;

MOUNT PLEASANT PTSUNNY   60  44  54 W7        29.96S
6HR MIN TEMP:  58; 6HR MAX TEMP:  67;

MUSKEGON       PTSUNNY   60  47  61 NW9       30.01S
6HR MIN TEMP:  56; 6HR MAX TEMP:  67; 6HR PCP:  0.01;

STURGIS        PTSUNNY   64  44  49 NW8       30.00R
6HR MIN TEMP:  64; 6HR MAX TEMP:  70;

$$
MIZ016>042-270100-
NORTHERN LOWER MICHIGAN

CITY           SKY/WX    TMP DP  RH WIND       PRES   REMARKS
ALPENA         LGT RAIN  55  54  96 NW5       29.93S
6HR MIN TEMP:  55; 6HR MAX TEMP:  63; 6HR PCP:  0.15;

BEAVER ISLAND  CLOUDY    55  49  80 NW6       29.98R
6HR MIN TEMP:  54; 6HR MAX TEMP:  60;

BELLAIRE       LGT RAIN  54  51  90 N7        29.96S
6HR MIN TEMP:  54; 6HR MAX TEMP:  56;

CADILLAC       CLOUDY    56  46  69 W9        29.97R
CHARLEVOIX     LGT RAIN  55  54  96 N8        29.99S
GAYLORD        CLOUDY    53  49  86 VRB3      29.95R
6HR MIN TEMP:  53; 6HR MAX TEMP:  59; 6HR PCP:  0.08;

HOUGHTON LAKE  CLOUDY    57  45  64 W13G20    29.96R
6HR MIN TEMP:  57; 6HR MAX TEMP:  61;

MANISTEE       LGT RAIN  56  51  84 W9        29.99S
OSCODA         PTSUNNY   64  44  47 W13G20    29.91R
6HR MIN TEMP:  64; 6HR MAX TEMP:  71;

PELLSTON       LGT RAIN  54  50  86 NW13      29.96R
6HR MIN TEMP:  54; 6HR MAX TEMP:  57; 6HR PCP:  0.32;

TRAVERSE CITY  HVY RAIN  56  53  90 N6        29.96R FOG
6HR MIN TEMP:  56; 6HR MAX TEMP:  62; 6HR PCP:  0.15;

LUDINGTON      CLOUDY    57  49  75 NW7       30.00S
6HR MIN TEMP:  56; 6HR MAX TEMP:  61;

$$
MIZ007>008-015-270100-
EASTERN UPPER MICHIGAN

CITY           SKY/WX    TMP DP  RH WIND       PRES   REMARKS
KINROSS        CLOUDY    52  46  80 NW12      29.94S
6HR MIN TEMP:  52; 6HR MAX TEMP:  55;

MACKINAC ISLAN CLOUDY    53  53 100 NW7       29.94S
6HR MIN TEMP:  53; 6HR MAX TEMP:  55; 6HR PCP:  0.26;

NEWBERRY       PTSUNNY   54  47  79 NW5       29.96S
6HR MIN TEMP:  51; 6HR MAX TEMP:  54; 6HR PCP:  0.04;

S. S. MARIE    CLOUDY    53  44  71 NW9       29.93S
6HR MIN TEMP:  53; 6HR MAX TEMP:  59; 6HR PCP:  0.07;

$$
MIZ004>006-011>014-085-270100-
CENTRAL UPPER MICHIGAN

CITY           SKY/WX    TMP DP  RH WIND       PRES   REMARKS
MANISTIQUE     PTSUNNY   56  44  65 NW6       29.97F
6HR MIN TEMP:  54; 6HR MAX TEMP:  59;

ESCANABA       MOSUNNY   63  42  46 N6        29.99S
6HR MIN TEMP:  56; 6HR MAX TEMP:  64; 6HR PCP: TRACE;

MENOMINEE      MOSUNNY   60  50  69 VRB5      30.02S
6HR MIN TEMP:  54; 6HR MAX TEMP:  61; 6HR PCP:  0.08;

SAWYER-GWINN   SUNNY     59  45  58 NW8       30.00S
$$
MIZ001>003-009>011-084-270100-
WESTERN UPPER MICHIGAN

CITY           SKY/WX    TMP DP  RH WIND       PRES   REMARKS
IRON MOUNTAIN  SUNNY     63  43  48 NW6       30.00F
6HR MIN TEMP:  53; 6HR MAX TEMP:  63; 6HR PCP:  0.01;

HOUGHTON       SUNNY     58  46  64 W10       29.99F
6HR MIN TEMP:  55; 6HR MAX TEMP:  63;

COPPER HARBOR    N/A     61  46  57 NW9G21    29.97F
6HR MIN TEMP:  56; 6HR MAX TEMP:  62;

IRONWOOD       SUNNY     61  45  55 W9        30.04S
6HR MIN TEMP:  58; 6HR MAX TEMP:  65;

$$

ABBREVIATIONS USED IN REMARKS
   TC - TEMPERATURE IN CELSIUS
  WCI - WIND CHILL INDEX
   HX - HEAT INDEX
  VSB - VISIBILITY





USA.gov is the U.S. government's official web portal to all federal, state and local government web resources and services.